シューメーカー-レヴィ第3彗星

129P/Shoemaker-Levy 3 (2014)

English version
Home page
Updated on November 8, 2011

---------------------------------------------------------------------

・ プロフィール

・ 軌道要素

The following orbital elements are taken from MPC 75731:

Epoch 2014 Jan. 23.0 TT = JDT 2456680.5
T 2014 Feb. 11.5870 TT                                  MPC
q   3.913303             (2000.0)            P               Q
n   0.1109044      Peri.  309.5100      -0.7004761      -0.7136570
a   4.290456       Node   184.9649      +0.6718099      -0.6569132
e   0.087905       Incl.    3.4377      +0.2408415      -0.2432258
P   8.89
From 251 observations 1991-2003, mean residual 0".6.  Nongravitational
     parameters A1 = -0.79, A2 = -1.8498.

・ 光度変化

        m1 = 11.5 + 5 logΔ + 10.0 log r

---------------------------------------------------------------------

軌道要素はMPCのEphemerides and Orbital Elementsに掲載されたものです。
光度グラフはComet for Windowsで作成したものです。

---------------------------------------------------------------------

Copyright(C) Seiichi Yoshida (comet@aerith.net). All rights reserved.